Flag for Argentina Weather past 2 weeks in Salta, Salta, Argentina

Now
86 °F

Passing clouds.


Feels Like: 89 °F
Forecast: 61 / 88 °F
Wind: 7 mph from East

Location: Jujuy Aerodrome

Current Time: Jan 26, 2015 at 1:31:33 PM

Latest Report: Jan 26, 2015 at 1:00 PM


Visibility: N/A

Pressure: 29.83 "Hg

Humidity: 55%

Dew point: 68 °F

Location of SaltaLocation

Historic Weather in Salta — Graph

°F

Salta temperature yesterday

Maximum temperature yesterday: 91 °F (at 2:00 PM)
Minimum temperature yesterday: 64 °F (at 7:00 AM)
Average temperature yesterday: 77 °F

Past Weeks' High & Low Weather Summary

 TemperatureHumidityPressure
High91 °F (Jan 25, 2:00 PM)100% (Jan 12, 7:00 AM)30.27 "Hg (Jan 12, 7:00 AM)
Low63 °F (Jan 21, 7:00 AM)32% (Jan 25, 4:00 PM)29.68 "Hg (Jan 13, 5:00 PM)
Average75 °F76%29.98 "Hg
* Reported Jan 11 12:00 Noon — Jan 26 12:00 Noon, Salta, Weather by CustomWeather, © 2014

Note: Actual official high and low records may vary slightly from our data, if they occured in-between our weather recording intervals... More about our weather records

Advertising

Salta weather history for previous 24 hours

 ConditionsComfort  
Time TempWeatherWind HumidityBarometerVisibility
12:00 PM
Jan 26
86 °FPassing clouds.7 mph55%29.86 "HgN/A
11:00 AM82 °FSunny.7 mph58%29.89 "Hg10 mi
10:00 AM79 °FSunny.No wind61%29.89 "Hg10 mi
9:00 AM75 °FSunny.5 mph65%29.92 "Hg10 mi
8:00 AM68 °FSunny.6 mph83%29.92 "Hg10 mi
7:00 AM64 °FSunny.8 mph94%29.92 "Hg10 mi
6:00 AM66 °FPassing clouds.6 mph88%29.92 "HgN/A
4:00 AM68 °FClear.5 mph88%29.92 "Hg10 mi
3:00 AM68 °FClear.2 mph88%29.95 "Hg10 mi
2:00 AM70 °FClear.No wind88%29.95 "Hg10 mi
1:00 AM72 °FClear.2 mph83%29.95 "Hg10 mi
12:00 AM73 °FClear.3 mph78%29.98 "Hg10 mi
11:00 PM
Jan 25
73 °FClear.3 mph74%29.98 "Hg10 mi
10:00 PM75 °FClear.No wind65%29.92 "Hg10 mi
9:00 PM79 °FPassing clouds.3 mph61%29.89 "HgN/A
8:00 PM82 °FPassing clouds.6 mph42%29.86 "HgN/A
7:00 PM84 °FPartly sunny.3 mph43%29.83 "HgN/A
6:00 PM88 °FPartly sunny.14 mph43%29.83 "HgN/A
5:00 PM90 °FPartly sunny.12 mph38%29.83 "HgN/A
4:00 PM91 °FPassing clouds.9 mph32%29.86 "HgN/A
3:00 PM91 °FPassing clouds.6 mph36%29.89 "HgN/A
2:00 PM91 °FPassing clouds.5 mph36%29.89 "HgN/A
1:00 PM86 °FPassing clouds.No wind49%29.92 "HgN/A
Weather by CustomWeather, © 2014

See weather overviewHow to use our weather pages